Hourly Data Report for October 16, 2012

All times are specified in Local Standard Time (LST). Add 1 hour to adjust for Daylight Saving Time where and when it is observed.

IQALUIT CLIMATE
NUNAVUT

63°44'50.000" N
68°32'40.000" W
33.50 m
2402592
71321
XFB

Download Data

Hourly Data (October 2012)
Hourly Data Report for October 16, 2012
Temp Definition
°C
Dew Point Temp Definition
°C
Rel Hum Definition
%
Wind Dir Definition
10's deg

Wind Spd Definition
km/h
Visibility Definition
km
Stn Press Definition
kPa
Hmdx Definition


Wind Chill Definition


Weather Definition


TIME
00:00 -3.4 -4.3 93 33 28   100.54   -11 LegendNANA
01:00 -3.3 -4.0 95 33 30   100.53   -11 LegendNANA
02:00 -3.4 -4.3 93 33 26   100.55   -10 LegendNANA
03:00 -3.2 -4.2 93 33 28   100.55   -10 LegendNANA
04:00 -3.3 -4.1 94 33 28   100.55   -11 LegendNANA
05:00 -3.3 -3.8 96 33 26   100.54   -10 LegendNANA
06:00 -3.4 -3.9 96 32 26   100.52   -10 LegendNANA
07:00 -3.4 -4.0 96 32 26   100.50   -10 LegendNANA
08:00 -3.2 -4.0 94 32 24   100.50   -10 LegendNANA
09:00 -3.3 -4.1 94 32 24   100.52   -10 LegendNANA
10:00 -3.1 -4.0 93 32 20   100.52   -9 LegendNANA
11:00 -3.0 -4.2 91 32 19   100.53   -9 LegendNANA
12:00 -3.4 -4.2 94 31 19   100.57   -9 LegendNANA
13:00 -3.6 -4.1 96 32 17   100.63   -9 LegendNANA
14:00 -3.7 -4.0 98 33 9   100.66   -7 LegendNANA
15:00 -3.5 -3.9 97 36 6   100.72   -6 LegendNANA
16:00 -4.1 -4.7 96   0   100.79     LegendNANA
17:00 -3.3 -5.9 82 27 9   100.87   -7 LegendNANA
18:00 -5.9 -7.3 90 2 4   100.91   -8 LegendNANA
19:00 -5.0 -6.1 92 6 2   100.97   -6 LegendNANA
20:00 -3.5 -5.6 85 15 6   101.01   -6 LegendNANA
21:00 -2.0 -5.8 75 20 9   101.04   -5 LegendNANA
22:00 -2.3 -5.6 78 17 15   101.08   -7 LegendNANA
23:00 -2.0 -4.8 81 15 22   101.09   -8 LegendNANA

Notes on Data Quality.

Legend

  • E = Estimated
  • M = Missing
  • NA = Not Available
  • ‡ = Partner data that is not subject to review by the National Climate Archives
Date modified: